This is the latest recevied weather packets stored in our database for station/object OK1FPA-13. If no packets are shown the sender has not sent any weather packets the latest 10 day(s).
| Time | Temp. | Humidity | Pressure | Rain* | Wind** | Luminosity | Snow |
|---|---|---|---|---|---|---|---|
| 1777695869 | 3.33° C | 90% | 1024.9 hPa | - | - | - | - |
| 1777695270 | 3.33° C | 89% | 1024.9 hPa | - | - | - | - |
| 1777694671 | 3.33° C | 85% | 1024.9 hPa | - | - | - | - |
| 1777694070 | 3.33° C | 85% | 1024.9 hPa | - | - | - | - |
| 1777693470 | 2.78° C | 83% | 1025 hPa | - | - | - | - |
| 1777692869 | 3.33° C | 81% | 1024.9 hPa | - | - | - | - |
| 1777692269 | 3.89° C | 83% | 1024.9 hPa | - | - | - | - |
| 1777691670 | 3.89° C | 84% | 1024.9 hPa | - | - | - | - |
| 1777691069 | 3.89° C | 87% | 1024.8 hPa | - | - | - | - |
| 1777690470 | 3.89° C | 86% | 1024.9 hPa | - | - | - | - |
| 1777689869 | 4.44° C | 81% | 1024.9 hPa | - | - | - | - |
| 1777689270 | 4.44° C | 84% | 1025 hPa | - | - | - | - |
| 1777688669 | 3.89° C | 91% | 1025 hPa | - | - | - | - |
| 1777688069 | 3.89° C | 91% | 1024.9 hPa | - | - | - | - |
| 1777687470 | 4.44° C | 81% | 1024.9 hPa | - | - | - | - |
| 1777686870 | 5° C | 83% | 1024.8 hPa | - | - | - | - |
| 1777686270 | 4.44° C | 82% | 1024.9 hPa | - | - | - | - |
| 1777685670 | 5° C | 80% | 1024.9 hPa | - | - | - | - |
| 1777685072 | 5° C | 76% | 1024.9 hPa | - | - | - | - |
| 1777684468 | 5.56° C | 72% | 1025 hPa | - | - | - | - |
| 1777683868 | 5.56° C | 72% | 1025 hPa | - | - | - | - |
| 1777682668 | 5.56° C | 77% | 1025 hPa | - | - | - | - |
| 1777682068 | 5° C | 78% | 1025 hPa | - | - | - | - |
| 1777681468 | 5° C | 78% | 1025 hPa | - | - | - | - |
| 1777680868 | 5.56° C | 71% | 1025.1 hPa | - | - | - | - |
* Rain since midnight (hover to see other rain measurements)
** Current wind speed in m/s (hover to see current wind gust speed)